This is the latest recevied weather packets stored in our database for station/object KF6YUA. If no packets are shown the sender has not sent any weather packets the latest 10 day(s).
| Time | Temp. | Humidity | Pressure | Rain* | Wind** | Luminosity | Snow |
|---|---|---|---|---|---|---|---|
| 1778132889 | 10.56° C | 97% | 1020.5 hPa | 0 mm | - | 0 W/m² | - |
| 1778132585 | 11.11° C | 97% | 1020.8 hPa | 0 mm | - | 0 W/m² | - |
| 1778132283 | 10.56° C | 96% | 1020.7 hPa | 0 mm | - | 0 W/m² | - |
| 1778131980 | 11.11° C | 96% | 1020.5 hPa | 0 mm | - | 0 W/m² | - |
| 1778131679 | 11.11° C | 96% | 1020.5 hPa | 0 mm | - | 0 W/m² | - |
| 1778131375 | 11.11° C | 96% | 1020.6 hPa | 0 mm | - | 0 W/m² | - |
| 1778131073 | 11.11° C | 96% | 1020.5 hPa | 0 mm | - | 0 W/m² | - |
| 1778130770 | 11.11° C | 95% | 1020.6 hPa | 0 mm | - | 0 W/m² | - |
| 1778130467 | 11.11° C | 95% | 1020.5 hPa | 0 mm | - | 0 W/m² | - |
| 1778130163 | 11.11° C | 95% | 1020.4 hPa | 0 mm | - | 0 W/m² | - |
| 1778129860 | 11.11° C | 95% | 1020.4 hPa | 0 mm | - | 0 W/m² | - |
| 1778129556 | 11.67° C | 95% | 1020.3 hPa | 0 mm | - | 0 W/m² | - |
| 1778129254 | 11.67° C | 95% | 1020.5 hPa | 0 mm | - | 0 W/m² | - |
| 1778128950 | 11.67° C | 95% | 1020.3 hPa | 0 mm | - | 0 W/m² | - |
| 1778128646 | 11.67° C | 95% | 1020.2 hPa | 0 mm | - | 0 W/m² | - |
| 1778128343 | 12.22° C | 94% | 1020.2 hPa | 0 mm | - | 0 W/m² | - |
| 1778128040 | 12.22° C | 94% | 1020 hPa | 0 mm | - | 0 W/m² | - |
| 1778127734 | 12.22° C | 93% | 1020.5 hPa | 0 mm | - | 0 W/m² | - |
| 1778127432 | 12.22° C | 93% | 1020.1 hPa | 0 mm | - | 0 W/m² | - |
| 1778127129 | 12.78° C | 93% | 1020.2 hPa | 0 mm | - | 0 W/m² | - |
| 1778126826 | 12.78° C | 93% | 1020.1 hPa | 0 mm | - | 0 W/m² | - |
| 1778126522 | 12.78° C | 93% | 1020.1 hPa | 0 mm | - | 0 W/m² | - |
| 1778126218 | 12.78° C | 93% | 1020.3 hPa | 0 mm | - | 0 W/m² | - |
| 1778125914 | 12.78° C | 92% | 1020.3 hPa | 0 mm | - | 0 W/m² | - |
| 1778125610 | 12.78° C | 92% | 1020.2 hPa | 0 mm | - | 0 W/m² | - |
* Rain latest hour (hover to see other rain measurements)
** Current wind speed in m/s (hover to see current wind gust speed)